FW7688 Weather Reports


time (UTC)temp
C
wind
direction
speed
KPH
gust
KPH
rain 1hr
cm
rain 24hr
cm
rain mn
cm
humidity
%
barometer
mb
20260504120103 11 258 0.0 6.4 0.00 0.00 0.00 57 1014.6
20260504081514 6 288 0.0 0.0 0.00 0.00 0.00 68 1013.9
20260504050024 4 60 0.0 0.0 0.00 0.00 0.00 81 1013.7
20260504044532 4 60 0.0 0.0 0.00 0.00 0.00 79 1013.6
20260504043041 5 60 0.0 0.0 0.00 0.00 0.00 77 1013.6
20260504041514 5 60 0.0 0.0 0.00 0.00 0.00 75 1013.5
20260504040008 5 60 0.0 0.0 0.00 0.00 0.00 73 1013.5
20260504034503 5 60 0.0 0.0 0.00 0.00 0.00 73 1013.4
20260504033106 5 60 0.0 0.0 0.00 0.00 0.00 73 1013.3
20260504031604 6 60 0.0 0.0 0.00 0.00 0.00 72 1013.5
20260504030057 6 60 0.0 0.0 0.00 0.00 0.00 71 1013.3
20260504024630 6 60 0.0 0.0 0.00 0.00 0.00 70 1013.3
20260504023053 6 60 0.0 0.0 0.00 0.00 0.00 70 1013.3
20260504021556 6 60 0.0 0.0 0.00 0.00 0.00 68 1013.3
20260504014550 7 60 0.0 0.0 0.00 0.00 0.00 64 1013.2
20260504013052 7 60 0.0 0.0 0.00 0.00 0.00 60 1013.2
20260504011546 7 60 0.0 0.0 0.00 0.00 0.00 58 1013.1
20260504010037 7 60 0.0 0.0 0.00 0.00 0.00 59 1012.9
20260504004538 8 340 0.0 0.0 0.00 0.00 0.00 56 1012.5
20260504003036 8 340 0.0 0.0 0.00 0.00 0.00 54 1012.4
20260504001537 9 340 0.0 0.0 0.00 0.00 0.00 52 1012.2
20260504000038 10 10 0.0 1.6 0.00 0.00 0.00 51 1012.0
20260503234529 10 194 0.0 0.0 0.00 0.00 0.00 51 1011.8
20260503233052 10 272 0.0 0.0 0.00 0.00 0.00 49 1011.5
20260503231527 10 154 0.0 0.0 0.00 0.00 0.00 46 1011.4
20260503230025 10 154 0.0 0.0 0.00 0.00 0.00 44 1011.2
20260503224527 11 48 0.0 4.8 0.00 0.00 0.00 42 1011.1
20260503223024 11 276 1.6 9.7 0.00 0.00 0.00 40 1010.9
20260503221523 11 353 0.0 4.8 0.00 0.00 0.00 41 1010.8
20260503220022 11 70 0.0 4.8 0.00 0.00 0.00 39 1010.9
20260503214537 12 87 0.0 6.4 0.00 0.00 0.00 38 1010.9
20260503213021 12 262 1.6 6.4 0.00 0.00 0.00 40 1010.7
20260503211518 12 214 3.2 6.4 0.00 0.00 0.00 38 1010.8
20260503210019 12 189 0.0 12.9 0.00 0.00 0.00 39 1010.8
20260503204516 12 238 0.0 6.4 0.00 0.00 0.00 41 1010.8
20260503203015 11 226 1.6 6.4 0.00 0.00 0.00 42 1010.7
20260503201516 11 226 0.0 8.0 0.00 0.00 0.00 41 1011.0
20260503200013 11 153 0.0 6.4 0.00 0.00 0.00 43 1011.1
20260503194510 11 13 0.0 4.8 0.00 0.00 0.00 42 1011.1
20260503193009 11 140 0.0 8.0 0.00 0.00 0.00 44 1011.4
20260503191516 11 330 1.6 11.3 0.00 0.00 0.00 41 1011.5
20260503190012 12 330 0.0 8.0 0.00 0.00 0.00 44 1011.5
20260503184624 12 238 1.6 9.7 0.00 0.00 0.00 41 1011.7
20260503183040 12 162 3.2 9.7 0.00 0.00 0.00 44 1011.8
20260503181538 11 133 0.0 8.0 0.00 0.00 0.00 43 1011.8
20260503180048 11 39 1.6 9.7 0.00 0.00 0.00 46 1011.8
20260503174544 11 215 1.6 6.4 0.00 0.00 0.00 45 1012.0
20260503174513 11 98 1.6 6.4 0.00 0.00 0.00 45 1011.9
20260503173039 10 293 0.0 9.7 0.00 0.00 0.00 47 1012.0
20260503171528 11 221 3.2 8.0 0.00 0.00 0.00 42 1012.1